User: anonymous   Login
Location: Plymouth
(43.7570°N, 71.6890°W)
Time: 14:13:16
(UTC-04:00)
Language:

COSMOS 2406 - Orbit

View from above orbital plane
View from above orbital plane
View from above satellite
View from above satellite

Ground track
Ground track

The orbit data is extracted from the following two-line orbital elements,

1 28352U 04021A   15212.20506471 -.00000139  00000-0 -50856-4 0  9996
2 28352 071.0016 118.8534 0013223 055.1701 054.9146 14.11406260573916
Epoch (UTC): 31 July 2015 04:55:17
Eccentricity: 0.0013223
inclination: 71.0016°
perigee height: 845 km
apogee height: 864 km
right ascension of ascending node: 118.8534°
argument of perigee: 55.1701°
revolutions per day: 14.11406260
mean anomaly at epoch: 54.9146°
orbit number at epoch: 57391

The dashed part of the orbit path shows where the satellite is in the earth's shadow,  

DLR